| time (UTC) | temp F | wind direction | speed MPH | gust MPH | rain 1hr in | rain 24hr in | rain mn in | humidity % | barometer mb |
| 20260506220039 | 71 | 240 | 3.0 | 11.0 | 0.00 | 0.00 | 0.00 | 55 | 1018.4 |
| 20260506214537 | 70 | 236 | 3.0 | 12.0 | 0.00 | 0.00 | 0.00 | 55 | 1018.5 |
| 20260506213036 | 70 | 236 | 3.0 | 18.0 | 0.00 | 0.00 | 0.00 | 54 | 1018.6 |
| 20260506210034 | 70 | 279 | 4.0 | 20.0 | 0.00 | 0.00 | 0.00 | 54 | 1018.4 |
| 20260506204531 | 71 | 299 | 3.0 | 16.0 | 0.00 | 0.00 | 0.00 | 54 | 1018.6 |
| 20260506203036 | 70 | 288 | 2.0 | 10.0 | 0.00 | 0.00 | 0.00 | 55 | 1019.1 |
| 20260506200105 | 70 | 304 | 4.0 | 12.0 | 0.00 | 0.00 | 0.00 | 55 | 1019.0 |
| 20260506194532 | 70 | 297 | 3.0 | 14.0 | 0.00 | 0.00 | 0.00 | 56 | 1019.0 |
| 20260506193031 | 70 | 291 | 3.0 | 11.0 | 0.00 | 0.00 | 0.00 | 56 | 1019.1 |
| 20260506191537 | 69 | 286 | 2.0 | 13.0 | 0.00 | 0.00 | 0.00 | 57 | 1019.2 |
| 20260506190038 | 70 | 268 | 3.0 | 13.0 | 0.00 | 0.00 | 0.00 | 57 | 1019.4 |
| 20260506184536 | 69 | 261 | 2.0 | 10.0 | 0.00 | 0.00 | 0.00 | 60 | 1019.3 |
| 20260506181608 | 68 | 291 | 2.0 | 13.0 | 0.00 | 0.00 | 0.00 | 62 | 1019.2 |
| 20260506180035 | 68 | 266 | 3.0 | 16.0 | 0.00 | 0.00 | 0.00 | 62 | 1019.2 |
| 20260506174609 | 67 | 260 | 4.0 | 16.0 | 0.00 | 0.00 | 0.00 | 63 | 1019.4 |
| 20260506173030 | 67 | 288 | 3.0 | 16.0 | 0.00 | 0.00 | 0.00 | 63 | 1019.2 |
| 20260506170036 | 66 | 262 | 2.0 | 15.0 | 0.00 | 0.00 | 0.00 | 65 | 1018.7 |
| 20260506164534 | 65 | 284 | 3.0 | 16.0 | 0.00 | 0.00 | 0.00 | 66 | 1018.6 |
| 20260506160034 | 64 | 253 | 3.0 | 10.0 | 0.00 | 0.00 | 0.00 | 69 | 1019.2 |
| 20260506154532 | 63 | 255 | 3.0 | 11.0 | 0.00 | 0.00 | 0.00 | 70 | 1019.1 |
| 20260506151643 | 62 | 256 | 3.0 | 12.0 | 0.00 | 0.00 | 0.00 | 70 | 1018.8 |
| 20260506150030 | 61 | 254 | 2.0 | 10.0 | 0.00 | 0.00 | 0.00 | 71 | 1018.6 |
| 20260506144536 | 61 | 240 | 2.0 | 8.0 | 0.00 | 0.00 | 0.00 | 70 | 1018.7 |
| 20260506143035 | 61 | 240 | 2.0 | 11.0 | 0.00 | 0.00 | 0.00 | 71 | 1018.7 |
| 20260506141536 | 60 | 218 | 1.0 | 8.0 | 0.00 | 0.00 | 0.00 | 74 | 1018.7 |
| 20260506140038 | 58 | 180 | 1.0 | 9.0 | 0.00 | 0.00 | 0.00 | 74 | 1018.6 |
| 20260506134606 | 58 | 182 | 1.0 | 9.0 | 0.00 | 0.00 | 0.00 | 73 | 1018.5 |
| 20260506131537 | 58 | 237 | 1.0 | 7.0 | 0.00 | 0.00 | 0.00 | 74 | 1018.3 |
| 20260506130034 | 58 | 227 | 1.0 | 8.0 | 0.00 | 0.00 | 0.00 | 75 | 1018.2 |
| 20260506124650 | 58 | 246 | 1.0 | 7.0 | 0.00 | 0.00 | 0.00 | 75 | 1018.1 |
| 20260506123105 | 59 | 233 | 1.0 | 9.0 | 0.00 | 0.00 | 0.00 | 75 | 1018.0 |
| 20260506121532 | 58 | 234 | 3.0 | 10.0 | 0.00 | 0.00 | 0.00 | 75 | 1017.8 |
| 20260506120036 | 58 | 233 | 1.0 | 7.0 | 0.00 | 0.00 | 0.00 | 75 | 1017.7 |
| 20260506114530 | 58 | 230 | 1.0 | 6.0 | 0.00 | 0.00 | 0.00 | 75 | 1017.6 |
| 20260506113034 | 58 | 215 | 1.0 | 11.0 | 0.00 | 0.00 | 0.00 | 75 | 1017.5 |
| 20260506110034 | 59 | 206 | 1.0 | 10.0 | 0.00 | 0.00 | 0.00 | 74 | 1017.1 |
| 20260506104535 | 59 | 210 | 2.0 | 9.0 | 0.00 | 0.00 | 0.00 | 74 | 1017.0 |
| 20260506103036 | 58 | 228 | 2.0 | 9.0 | 0.00 | 0.00 | 0.00 | 75 | 1016.9 |
| 20260506101530 | 58 | 222 | 1.0 | 8.0 | 0.00 | 0.00 | 0.00 | 76 | 1016.8 |
| 20260506100107 | 58 | 200 | 1.0 | 7.0 | 0.00 | 0.00 | 0.00 | 76 | 1016.9 |
| 20260506094606 | 58 | 217 | 2.0 | 9.0 | 0.00 | 0.00 | 0.00 | 76 | 1016.8 |
| 20260506093035 | 59 | 232 | 1.0 | 7.0 | 0.00 | 0.00 | 0.00 | 76 | 1016.7 |
| 20260506091605 | 58 | 228 | 3.0 | 11.0 | 0.00 | 0.00 | 0.00 | 76 | 1016.7 |
| 20260506090107 | 58 | 213 | 1.0 | 8.0 | 0.00 | 0.00 | 0.00 | 77 | 1016.7 |
| 20260506081530 | 58 | 212 | 1.0 | 10.0 | 0.00 | 0.00 | 0.00 | 77 | 1016.4 |
| 20260506080141 | 58 | 230 | 1.0 | 9.0 | 0.00 | 0.00 | 0.00 | 77 | 1016.3 |
| 20260506073035 | 59 | 231 | 1.0 | 5.0 | 0.00 | 0.00 | 0.00 | 77 | 1016.1 |
| 20260506071534 | 59 | 221 | 1.0 | 9.0 | 0.00 | 0.00 | 0.00 | 77 | 1016.0 |
| 20260506061537 | 59 | 226 | 2.0 | 10.0 | 0.00 | 0.00 | 0.00 | 76 | 1015.6 |
| 20260506044535 | 59 | 242 | 1.0 | 9.0 | 0.00 | 0.00 | 0.00 | 74 | 1014.7 |
| 20260506043035 | 60 | 244 | 2.0 | 13.0 | 0.00 | 0.00 | 0.00 | 73 | 1014.5 |
| 20260506041652 | 60 | 249 | 2.0 | 9.0 | 0.00 | 0.00 | 0.00 | 73 | 1014.4 |
| 20260506033035 | 61 | 251 | 1.0 | 9.0 | 0.00 | 0.00 | 0.00 | 71 | 1013.7 |
| 20260506031535 | 61 | 243 | 2.0 | 12.0 | 0.00 | 0.00 | 0.00 | 70 | 1013.5 |
| 20260506030036 | 62 | 277 | 2.0 | 10.0 | 0.00 | 0.00 | 0.00 | 69 | 1013.2 |
| 20260506024533 | 62 | 283 | 2.0 | 11.0 | 0.00 | 0.00 | 0.00 | 68 | 1013.0 |
| 20260506023033 | 63 | 282 | 2.0 | 10.0 | 0.00 | 0.00 | 0.00 | 67 | 1013.1 |
| 20260506020031 | 64 | 258 | 1.0 | 9.0 | 0.00 | 0.00 | 0.00 | 65 | 1013.0 |
| 20260506014533 | 65 | 259 | 2.0 | 10.0 | 0.00 | 0.00 | 0.00 | 63 | 1012.8 |
| 20260506013032 | 66 | 274 | 2.0 | 9.0 | 0.00 | 0.00 | 0.00 | 63 | 1012.7 |
| 20260506011530 | 67 | 260 | 1.0 | 7.0 | 0.00 | 0.00 | 0.00 | 61 | 1012.8 |
| 20260506010107 | 67 | 262 | 2.0 | 11.0 | 0.00 | 0.00 | 0.00 | 60 | 1012.8 |
| 20260506004535 | 68 | 233 | 1.0 | 8.0 | 0.00 | 0.00 | 0.00 | 59 | 1012.7 |
| 20260506003043 | 69 | 246 | 2.0 | 9.0 | 0.00 | 0.00 | 0.00 | 58 | 1012.7 |
| 20260506001607 | 69 | 248 | 2.0 | 9.0 | 0.00 | 0.00 | 0.00 | 58 | 1012.6 |
| 20260506000034 | 69 | 257 | 2.0 | 11.0 | 0.00 | 0.00 | 0.00 | 59 | 1012.6 |
| 20260505233037 | 69 | 249 | 2.0 | 11.0 | 0.00 | 0.00 | 0.00 | 58 | 1012.8 |
| 20260505231534 | 70 | 284 | 2.0 | 10.0 | 0.00 | 0.00 | 0.00 | 58 | 1012.8 |
| 20260505230034 | 70 | 286 | 2.0 | 11.0 | 0.00 | 0.00 | 0.00 | 58 | 1012.9 |
| 20260505224644 | 69 | 278 | 2.0 | 10.0 | 0.00 | 0.00 | 0.00 | 58 | 1013.0 |
| 20260505223035 | 70 | 267 | 2.0 | 16.0 | 0.00 | 0.00 | 0.00 | 58 | 1013.0 |
| 20260505221537 | 69 | 283 | 2.0 | 12.0 | 0.00 | 0.00 | 0.00 | 58 | 1013.2 |